When you browse on this site, cookies collect data to enhance your experience and personalize the content and advertising you see.
Visit our Privacy Policy to learn more. By continuing to use the site, you agree to this use of cookies and data.
  • In Switzerland
  • List of Countries
  • For 7 days
  • Water Temperature
  • Weather Map
  • Weather Widgets
  • user-avatar
    Login

    Hourly Weather Grachevka

    Today, 23 September, Monday

    Time Temperature Precipitation Wind Pressure Humidity
    00:00 +1°C° 0 mm 6 mps 740 mmHg 83%
    01:00 -1°C° 0 mm 6 mps 740 mmHg 85%
    02:00 -1°C° 0 mm 6 mps 741 mmHg 86%
    03:00 0°C° 0 mm 5 mps 741 mmHg 89%
    04:00 0°C° 0 mm 5 mps 742 mmHg 86%
    05:00 +1°C° 0 mm 5 mps 742 mmHg 82%
    06:00 +1°C° 0 mm 5 mps 743 mmHg 79%
    07:00 +2°C° 0 mm 5 mps 743 mmHg 75%
    08:00 +2°C° 0 mm 6 mps 744 mmHg 72%
    09:00 +3°C° 0 mm 6 mps 745 mmHg 67%
    10:00 +4°C° 0 mm 6 mps 745 mmHg 65%
    11:00 +5°C° 0 mm 6 mps 745 mmHg 62%
    12:00 +7°C° 0 mm 6 mps 745 mmHg 60%
    13:00 +7°C° 0 mm 6 mps 746 mmHg 59%
    14:00 +7°C° 0 mm 6 mps 746 mmHg 58%
    15:00 +8°C° 0 mm 6 mps 746 mmHg 57%
    16:00 +7°C° 0 mm 5 mps 746 mmHg 59%
    17:00 +7°C° 0 mm 5 mps 746 mmHg 62%
    18:00 +6°C° 0 mm 4 mps 746 mmHg 64%
    19:00 +5°C° 0 mm 4 mps 747 mmHg 65%
    20:00 +5°C° 0 mm 4 mps 747 mmHg 66%
    21:00 +4°C° 0 mm 3 mps 748 mmHg 67%
    22:00 +4°C° 0 mm 3 mps 748 mmHg 70%
    23:00 +3°C° 0 mm 3 mps 747 mmHg 72%

    Tomorrow, 24 September, Tuesday

    Time Temperature Precipitation Wind Pressure Humidity
    00:00 +3°C° 0 mm 2 mps 747 mmHg 75%
    01:00 +2°C° 0 mm 2 mps 748 mmHg 75%
    02:00 +2°C° 0 mm 2 mps 748 mmHg 75%
    03:00 +2°C° 0 mm 2 mps 748 mmHg 76%
    04:00 0°C° 0 mm 3 mps 748 mmHg 77%
    05:00 0°C° 0 mm 3 mps 748 mmHg 78%
    06:00 0°C° 0 mm 3 mps 748 mmHg 80%
    07:00 +1°C° 0 mm 3 mps 748 mmHg 75%
    08:00 +2°C° 0 mm 3 mps 748 mmHg 70%
    09:00 +4°C° 0 mm 4 mps 749 mmHg 65%
    10:00 +4°C° 0 mm 4 mps 748 mmHg 62%
    11:00 +5°C° 0 mm 4 mps 748 mmHg 60%
    12:00 +6°C° 0 mm 4 mps 748 mmHg 57%
    13:00 +6°C° 0.1 mm 4 mps 748 mmHg 58%
    14:00 +6°C° 0.1 mm 4 mps 748 mmHg 59%
    15:00 +6°C° 0.1 mm 4 mps 748 mmHg 60%
    16:00 +5°C° 0 mm 4 mps 748 mmHg 62%
    17:00 +5°C° 0 mm 3 mps 748 mmHg 65%
    18:00 +4°C° 0 mm 3 mps 748 mmHg 68%
    19:00 +4°C° 0 mm 3 mps 748 mmHg 71%
    20:00 +3°C° 0 mm 3 mps 748 mmHg 75%
    21:00 +3°C° 0 mm 2 mps 748 mmHg 78%
    22:00 +2°C° 0 mm 2 mps 748 mmHg 81%
    23:00 +2°C° 0 mm 2 mps 748 mmHg 84%

    Day after tomorrow, 25 September, Wednesday

    Time Temperature Precipitation Wind Pressure Humidity
    00:00 +2°C° 0 mm 2 mps 748 mmHg 87%
    01:00 +1°C° 0 mm 2 mps 749 mmHg 89%
    02:00 +1°C° 0 mm 2 mps 749 mmHg 91%
    03:00 +1°C° 0 mm 2 mps 749 mmHg 93%
    04:00 +1°C° 0 mm 2 mps 749 mmHg 93%
    05:00 -1°C° 0 mm 2 mps 749 mmHg 94%
    06:00 -1°C° 0 mm 2 mps 749 mmHg 94%
    07:00 +2°C° 0 mm 2 mps 749 mmHg 87%
    08:00 +3°C° 0 mm 2 mps 749 mmHg 80%
    09:00 +4°C° 0 mm 2 mps 749 mmHg 74%
    10:00 +5°C° 0 mm 2 mps 749 mmHg 69%
    11:00 +7°C° 0 mm 2 mps 749 mmHg 65%
    12:00 +8°C° 0 mm 3 mps 749 mmHg 60%
    13:00 +8°C° 0.1 mm 3 mps 749 mmHg 59%
    14:00 +8°C° 0.1 mm 3 mps 749 mmHg 57%
    15:00 +9°C° 0.1 mm 3 mps 749 mmHg 56%
    16:00 +8°C° 0 mm 3 mps 749 mmHg 60%
    17:00 +7°C° 0 mm 2 mps 748 mmHg 64%
    18:00 +6°C° 0 mm 2 mps 748 mmHg 68%
    19:00 +7°C° 0 mm 1 mps 748 mmHg 70%
    20:00 +6°C° 0 mm 1 mps 749 mmHg 72%
    21:00 +6°C° 0 mm 1 mps 749 mmHg 74%
    22:00 +6°C° 0 mm 1 mps 749 mmHg 74%
    23:00 +6°C° 0 mm 1 mps 749 mmHg 75%

    26 September, Thursday

    Time Temperature Precipitation Wind Pressure Humidity
    00:00 +4°C° 0 mm 2 mps 748 mmHg 75%
    01:00 +4°C° 0 mm 2 mps 749 mmHg 76%
    02:00 +4°C° 0 mm 2 mps 749 mmHg 76%
    03:00 +5°C° 0 mm 1 mps 749 mmHg 77%
    04:00 +4°C° 0 mm 1 mps 749 mmHg 78%
    05:00 +4°C° 0 mm 1 mps 749 mmHg 80%
    06:00 +3°C° 0 mm 1 mps 749 mmHg 82%
    07:00 +5°C° 0 mm 1 mps 749 mmHg 77%
    08:00 +6°C° 0 mm 1 mps 749 mmHg 72%
    09:00 +7°C° 0 mm 1 mps 749 mmHg 68%
    10:00 +8°C° 0 mm 1 mps 749 mmHg 63%
    11:00 +9°C° 0 mm 2 mps 749 mmHg 58%
    12:00 +10°C° 0 mm 2 mps 749 mmHg 53%
    13:00 +10°C° 0 mm 2 mps 749 mmHg 52%
    14:00 +10°C° 0 mm 2 mps 749 mmHg 50%
    15:00 +12°C° 0 mm 2 mps 749 mmHg 48%
    16:00 +10°C° 0 mm 2 mps 749 mmHg 52%
    17:00 +10°C° 0 mm 1 mps 749 mmHg 56%
    18:00 +9°C° 0 mm 1 mps 748 mmHg 61%
    19:00 +8°C° 0 mm 1 mps 748 mmHg 63%
    20:00 +8°C° 0 mm 1 mps 749 mmHg 65%
    21:00 +7°C° 0 mm 1 mps 749 mmHg 67%
    22:00 +5°C° 0 mm 0 mps 749 mmHg 68%
    23:00 +5°C° 0 mm 0 mps 749 mmHg 69%

    27 September, Friday

    Time Temperature Precipitation Wind Pressure Humidity
    00:00 +5°C° 0 mm 0 mps 749 mmHg 71%
    01:00 +5°C° 0 mm 0 mps 749 mmHg 71%
    02:00 +4°C° 0 mm 0 mps 749 mmHg 72%
    03:00 +5°C° 0 mm 1 mps 749 mmHg 73%
    04:00 +5°C° 0 mm 1 mps 749 mmHg 74%
    05:00 +5°C° 0 mm 1 mps 749 mmHg 74%
    06:00 +4°C° 0 mm 1 mps 749 mmHg 75%
    07:00 +6°C° 0 mm 1 mps 749 mmHg 70%
    08:00 +7°C° 0 mm 1 mps 749 mmHg 65%
    09:00 +9°C° 0 mm 1 mps 748 mmHg 60%
    10:00 +10°C° 0 mm 1 mps 749 mmHg 57%
    11:00 +10°C° 0 mm 2 mps 749 mmHg 54%
    12:00 +13°C° 0 mm 2 mps 749 mmHg 51%
    13:00 +13°C° 0 mm 2 mps 748 mmHg 51%
    14:00 +13°C° 0 mm 3 mps 748 mmHg 52%
    15:00 +13°C° 0 mm 3 mps 748 mmHg 52%
    16:00 +13°C° 0 mm 2 mps 748 mmHg 57%
    17:00 +12°C° 0 mm 2 mps 748 mmHg 63%
    18:00 +10°C° 0 mm 2 mps 748 mmHg 68%
    19:00 +11°C° 0 mm 1 mps 748 mmHg 70%
    20:00 +10°C° 0 mm 1 mps 748 mmHg 73%
    21:00 +9°C° 0 mm 1 mps 748 mmHg 76%
    22:00 +9°C° 0 mm 1 mps 749 mmHg 76%
    23:00 +8°C° 0 mm 1 mps 749 mmHg 76%

    28 September, Saturday

    Time Temperature Precipitation Wind Pressure Humidity
    00:00 +8°C° 0 mm 1 mps 749 mmHg 77%
    01:00 +8°C° 0 mm 1 mps 749 mmHg 77%
    02:00 +7°C° 0 mm 1 mps 749 mmHg 78%
    03:00 +7°C° 0 mm 1 mps 749 mmHg 79%
    04:00 +7°C° 0 mm 1 mps 749 mmHg 79%
    05:00 +5°C° 0 mm 0 mps 750 mmHg 80%
    06:00 +5°C° 0 mm 0 mps 750 mmHg 80%
    07:00 +6°C° 0 mm 0 mps 750 mmHg 75%
    08:00 +7°C° 0 mm 0 mps 750 mmHg 70%
    09:00 +9°C° 0 mm 0 mps 750 mmHg 65%
    10:00 +10°C° 0 mm 0 mps 751 mmHg 61%
    11:00 +11°C° 0 mm 0 mps 751 mmHg 56%
    12:00 +13°C° 0 mm 0 mps 751 mmHg 52%
    13:00 +13°C° 0 mm 0 mps 751 mmHg 51%
    14:00 +14°C° 0 mm 1 mps 751 mmHg 49%
    15:00 +15°C° 0 mm 1 mps 750 mmHg 48%
    16:00 +14°C° 0 mm 1 mps 750 mmHg 52%
    17:00 +13°C° 0 mm 1 mps 750 mmHg 57%
    18:00 +12°C° 0 mm 1 mps 750 mmHg 62%
    19:00 +12°C° 0 mm 1 mps 750 mmHg 64%
    20:00 +11°C° 0 mm 1 mps 750 mmHg 67%
    21:00 +11°C° 0 mm 1 mps 750 mmHg 70%
    22:00 +10°C° 0 mm 2 mps 750 mmHg 72%
    23:00 +10°C° 0 mm 2 mps 750 mmHg 74%
    Show more